Weather observations for the past three days for
Kailua / Kona, Keahole Airport
Imperial (Metric)
Date Time (hst) Wind (mph) Vis. (mi.) Weather Sky Cond. Temperature (ºF) Relative Humidity Wind Chill (°F) Heat Index (°F) Pressure Precipitation (in)
Air Dwpt 6 hour altimeter (in) sea level (mb) 1 hr 3 hr 6 hr
Max. Min.
24 04:53 E 5 10.00 Overcast OVC039 79 69.1 72% 82 29.98 1015.0
24 03:53 E 5 10.00 A Few Clouds FEW050 79 70 74% 82 29.97 1014.8
24 02:53 S 8 10.00 Fair CLR 79 70 74% 82 29.96 1014.5
24 01:53 SE 6 10.00 Fair CLR 79 69.1 82 79 72% 82 29.97 1014.8
24 00:53 NW 6 10.00 Fair CLR 81 73 77% 86 29.98 1015.3
23 23:53 NE 3 10.00 Fair CLR 81 72 74% 85 30 1015.7
23 22:53 Calm 10.00 Fair CLR 81 73 77% 86 30 1015.8
23 21:53 SW 5 10.00 A Few Clouds FEW037 FEW060 81 72 74% 85 29.99 1015.6
23 20:53 S 7 10.00 Partly Cloudy SCT041 81 72 74% 85 29.98 1015.0
23 19:53 S 13 10.00 Partly Cloudy SCT060 82 71.1 89.1 82 69% 86 29.95 1014.2
23 18:53 S 13 10.00 Partly Cloudy SCT050 84 70 63% 88 29.93 1013.5
23 17:53 S 16 10.00 Partly Cloudy SCT040 86 70 59% 91 29.92 1012.9
23 16:53 S 15 10.00 Partly Cloudy SCT070 86 70 59% 91 29.91 1012.8
23 15:53 SW 10 10.00 Partly Cloudy SCT040 88 68 52% 92 29.91 1012.6
23 14:53 W 7 10.00 A Few Clouds FEW050 86 66.9 53% 89 29.92 1012.9
23 13:53 NW 10 10.00 A Few Clouds FEW045 86 68 87.1 81 55% 89 29.92 1013.2
23 12:53 NW 12 10.00 A Few Clouds FEW050 84.9 70 61% 89 29.95 1013.9
23 11:53 W 10 10.00 A Few Clouds FEW060 87.1 71.1 59% 93 29.96 1014.5
23 10:53 W 8 10.00 A Few Clouds FEW050 84 69.1 61% 88 29.98 1015.2
23 09:53 W 7 10.00 A Few Clouds FEW050 82.9 69.1 63% 87 29.99 1015.5
23 08:53 W 6 10.00 Fair CLR 81 71.1 72% 85 29.99 1015.5
23 07:53 SW 3 10.00 Fair CLR 81 66 81 75 61% 83 30 1015.6
23 06:53 Calm 10.00 A Few Clouds FEW040 78.1 64 62% 80 29.98 1015.1
23 05:53 NE 5 10.00 A Few Clouds FEW030 77 64 64% 79 29.96 1014.4
23 04:53 SE 7 10.00 Fair CLR 75 64 69% 77 29.95 1014.1
23 03:53 SE 9 10.00 Fair CLR 75.9 64.9 69% 78 29.95 1013.9
23 02:53 SE 6 10.00 Fair CLR 77 64.9 66% 79 29.95 1014.2
23 01:53 E 5 10.00 Fair CLR 78.1 66 81 77 67% 80 29.97 1014.6
23 00:53 SE 10 10.00 Fair CLR 78.1 68 71% 80 29.98 1015.0
22 23:53 SE 9 10.00 Fair CLR 78.1 69.1 74% 80 29.99 1015.4
22 22:53 SE 8 10.00 Fair CLR 79 69.1 72% 82 30 1015.9
22 21:53 SE 7 10.00 Fair CLR 80.1 69.1 69% 83 30 1015.9
22 20:53 Calm 10.00 Mostly Cloudy SCT028 BKN050 80.1 70 71% 83 30 1015.9
22 19:53 S 8 10.00 Mostly Cloudy BKN048 81 70 86 81 69% 84 30 1015.6
22 18:53 S 8 10.00 Mostly Cloudy BKN055 82 69.1 65% 85 29.98 1015.2
22 17:53 SW 7 10.00 Mostly Cloudy BKN057 82.9 69.1 63% 87 29.97 1014.7
22 16:53 SW 8 10.00 A Few Clouds FEW046 84 69.1 61% 88 29.96 1014.6
22 15:53 W 13 10.00 Partly Cloudy SCT047 84.9 70 61% 89 29.97 1014.8
22 14:53 SW 10 10.00 Partly Cloudy SCT055 84.9 69.1 59% 89 29.99 1015.3
22 13:53 W 10 10.00 Partly Cloudy SCT043 84 70 87.1 80.1 63% 88 30.01 1016.0
22 12:53 W 12 10.00 Mostly Cloudy BKN050 84.9 70 61% 89 30.04 1016.9
22 11:53 W 12 10.00 A Few Clouds FEW055 86 70 59% 91 30.05 1017.4
22 10:53 W 9 10.00 Partly Cloudy FEW036 SCT045 84 69.1 61% 88 30.06 1017.7
22 09:53 SW 7 10.00 Partly Cloudy SCT045 82.9 68 61% 86 30.06 1017.8
22 08:53 SW 7 10.00 Mostly Cloudy FEW030 SCT036 BKN045 81 69.1 67% 84 30.06 1017.8
22 07:53 S 3 10.00 Fair CLR 81 69.1 81 77 67% 84 30.05 1017.5
22 06:53 SE 3 10.00 Fair CLR 79 68 69% 81 30.04 1017.0
22 05:53 SE 7 10.00 Fair CLR 77 66 69% 79 30.02 1016.5
22 04:53 SE 6 10.00 Overcast FEW028 BKN034 OVC041 78.1 66 67% 80 30.02 1016.4
22 03:53 SE 7 10.00 Mostly Cloudy BKN041 78.1 68 71% 80 30.01 1016.1
22 02:53 Calm 10.00 Overcast FEW027 BKN035 OVC044 78.1 66.9 69% 80 30.02 1016.5
22 01:53 E 8 10.00 Fair CLR 78.1 70 82 77 76% 80 30.03 1016.9
22 00:53 SE 7 10.00 Fair CLR 78.1 69.1 74% 80 30.05 1017.3
21 23:53 SE 6 10.00 Fair CLR 79 70 74% 82 30.07 1018.0
21 22:53 Vrbl 3 10.00 A Few Clouds FEW100 80.1 66.9 64% 82 30.08 1018.3
21 21:53 NE 12 10.00 Overcast OVC100 80.1 66 62% 82 30.08 1018.4
21 20:53 N 5 10.00 Overcast OVC100 81 68 65% 84 30.06 1017.9
21 19:53 NW 10 10.00 Mostly Cloudy SCT037 BKN100 81 72 88 81 74% 85 30.05 1017.6
21 18:53 N 12 10.00 A Few Clouds FEW040 82 72 72% 87 30.04 1017.2
21 17:53 NW 10 10.00 Mostly Cloudy BKN053 82.9 73 72% 89 30.03 1016.9
21 16:53 W 10 10.00 Mostly Cloudy FEW050 BKN110 84 72 67% 90 30.03 1016.9
21 15:53 W 13 10.00 Mostly Cloudy FEW055 BKN110 86 72 63% 92 30.03 1016.9
21 14:53 W 12 10.00 Mostly Cloudy BKN110 87.1 71.1 59% 93 30.04 1017.0
21 13:53 W 14 10.00 A Few Clouds FEW050 86 71.1 88 81 61% 92 30.05 1017.3
21 12:53 SW 13 10.00 A Few Clouds FEW040 86 73 65% 93 30.06 1017.7
21 11:53 SW 12 10.00 Fair CLR 86 72 63% 92 30.07 1018.1
21 10:53 SW 14 10.00 A Few Clouds FEW050 84.9 71.1 63% 90 30.07 1018.2
21 09:53 S 9 10.00 Fair CLR 86 66.9 53% 89 30.07 1018.1
21 08:53 S 8 10.00 Fair CLR 84 69.1 61% 88 30.07 1018.1
21 07:53 S 7 10.00 Fair CLR 81 69.1 81 75.9 67% 84 30.06 1017.8
21 06:53 SE 5 10.00 Fair CLR 78.1 68 71% 80 30.06 1017.7
21 05:53 E 5 10.00 Fair CLR 75.9 66.9 74% 77 30.04 1017.1
Date Time (hst) Wind (mph) Vis. (mi.) Weather Sky Cond. Air Dwpt Max. Min. Relative Humidity Wind Chill (°F) Heat Index (°F) altimeter (in) sea level (mb) 1 hr 3 hr 6 hr
6 hour
Temperature (ºF) Pressure Precipitation (in)